Погода в Угловом

Россия / Самарская область     53°32′47″N   50°22′58″E
темп.,
°C
ветер,
м/с
пор.,
м/с
влажн.,
%
обл.,
%
осадки,
мм/ч
давл.,
гПа
погр.,
м
8 мая, сб
сб801:00+12юз1161100 0.0 101611
04:00+11юв3265100 0.1 101632
07:00+13ссз006278 0.3 101757
10:00+18ю124823 0.3 1017960
13:00+19ююз343996 0.0 10162141
16:00+19юв124273 0.0 1015794
19:00+18вюв355286 0.0 101488
22:00+15юв34580 0.0 101556
9 мая, вс
вс901:00+12юв496975 0.0 1014149
04:00+11юв347193 0.0 101457
07:00+14юв386898 0.0 1014203
10:00+19ююв684854 0.0 1014927
13:00+22ю674056 0.0 10141876
16:00+23ю464087 0.0 10132165
19:00+20юв355295 0.0 101376
22:00+18ююв335691 0.0 101450
10 мая, пн
пн1001:00+15юв3561100 0.0 101480
04:00+14юв3568100 0.0 101574
07:00+16юв2865100 0.0 1017251
10:00+21юв4646100 0.0 1018706
13:00+24юв4538100 0.0 10181854
16:00+24вюв3436100 0.0 10192286
19:00+20всв4756100 0.0 1020172
22:00+15ссв61284100 0.0 1022330
11 мая, вт
вт1101:00+14ссв4988100 0.0 1023270
04:00+13ссв3791100 0.0 1024234
07:00+13ссв5786100 0.0 1025278
10:00+16св4574100 0.0 1027434
13:00+22всв55515 0.0 10261051
16:00+23всв564549 0.0 10262022
19:00+20в3660100 0.0 1026149
22:00+16св5117796 0.0 1027237
12 мая, ср
ср1201:00+15всв61378100 0.0 1028318
04:00+13в4118190 0.0 1028253
07:00+14в51170100 0.0 1028323
10:00+19в5756100 0.0 1029636
13:00+22в5548100 0.0 10281188
16:00+23в454499 0.0 10271523
19:00+20всв375357 0.0 1027166
22:00+16всв41055100 0.0 1026145